Location: Greenshields
(52.7833°N, 110.7667°W)
Time: 06:44:25
(UTC+00:00)

ISS - Visible Passes

Search period start: 04 December 2021 00:00
Search period end: 14 December 2021 00:00
Orbit: 417 x 423 km, 51.6° (Epoch: 04 December)

Date Brightness Start Highest point End Pass type
(mag) Time Alt. Az. Time Alt. Az. Time Alt. Az.
04 Dec -2.2 01:31:03 10° W 01:34:08 32° SSW 01:35:03 27° S visible
05 Dec -2.6 00:43:36 10° W 00:46:50 41° SSW 00:49:57 11° SE visible
05 Dec -0.7 02:21:30 10° WSW 02:22:57 12° SW 02:22:57 12° SW visible
05 Dec -2.9 23:56:09 10° W 23:59:27 52° SSW 00:02:46 10° ESE visible
06 Dec -1.0 01:33:26 10° W 01:35:46 17° SW 01:38:02 10° S visible
07 Dec -1.4 00:45:40 10° W 00:48:27 24° SSW 00:51:15 10° SSE visible
07 Dec -1.8 23:58:01 10° W 00:01:04 32° SSW 00:04:07 10° SE visible
09 Dec -0.5 00:48:18 10° WSW 00:49:46 12° SW 00:51:14 10° SSW visible
10 Dec -0.7 00:00:02 10° W 00:02:23 17° SW 00:04:42 10° S visible
